Regional Weather Roundup
Issued by NWS

Home | Current Version | Previous Version | Text Only | Print | Product List | Glossary On
Versions: 1 2 3 4 5 6 7 8 9 10 11 12 13 14 15 16 17 18 19 20 21 22 23 24 25 26 27 28 29 30 31 32 33 34 35 36 37 38 39 40 41 42 43 44 45 46 47 48 49 50
000
ASUS43 KLSX 050910
RWRMO

WEATHER SUMMARY FOR MISSOURI
NATIONAL WEATHER SERVICE SPRINGFIELD MO
400 AM CDT THU MAY 05 2016

NOTE: "FAIR" INDICATES FEW OR NO CLOUDS BELOW 12,000 FEET WITH NO
       SIGNIFICANT WEATHER AND/OR OBSTRUCTIONS TO VISIBILITY.
       CURRENT SKY AND/OR WEATHER CONDITIONS ARE NOT AVAILABLE FOR
       CHILLICOTHE AND FARMINGTON.

MOZ001>031-035>038-043-044-053-054-051000-
...NORTHERN AND WESTERN MISSOURI...

CITY           SKY/WX    TMP DP  RH WIND       PRES   REMARKS
KANSAS CTY INT PTCLDY    48  40  73 W7        30.00S
KANSAS C DTWN  CLEAR     50  44  80 W3        30.00S
LEE`S SUMMIT   CLEAR     49  41  74 SW5       30.00S
ST JOSEPH      CLEAR     44  42  93 CALM      30.01S
CHILLICOTHE      N/A     47  40  76 CALM      29.99S
KIRKSVILLE     CLEAR     44  36  73 NW7       29.97R

$$
MOZ066>068-077>081-088>096-101>105-051000-
...SOUTHWEST MISSOURI...

CITY           SKY/WX    TMP DP  RH WIND       PRES   REMARKS
SPRINGFIELD    CLEAR     44  37  76 CALM      29.98R
JOPLIN         CLEAR     44  41  89 CALM      30.02R

$$
MOZ032>034-039>042-045>050-055>058-069>072-051000-
...CENTRAL MISSOURI...

CITY           SKY/WX    TMP DP  RH WIND       PRES   REMARKS
COLUMBIA       CLEAR     47  38  71 NW6       29.94S
JEFFERSON CITY CLEAR     45  40  82 NW5       29.95R
ROLLA          CLEAR     46  37  71 NW5       29.92R
SEDALIA        CLEAR     50  39  66 NW7       29.97S
WHITEMAN AFB   CLEAR     48  40  75 W7        29.96S
WARRENSBURG    CLEAR     46  37  71 W6        29.98S
OSAGE BEACH    CLEAR     45  34  65 CALM      29.95S

$$
MOZ051-052-059>065-051000-
...EAST CENTRAL MISSOURI...

CITY           SKY/WX    TMP DP  RH WIND       PRES   REMARKS
ST LOUIS INTL  CLEAR     50  38  63 NW6       29.89R
SPIRIT OF STL  CLEAR     46  39  76 CALM      29.89S
ST CHARLES     CLEAR     51  38  60 N10       29.89R

$$
MOZ072>076-082>087-097>100-106>115-051000-
...SOUTH CENTRAL AND SOUTHEAST MISSOURI...

CITY           SKY/WX    TMP DP  RH WIND       PRES   REMARKS
CAPE GIRARDEAU CLEAR     44  40  85 W6        29.86S
FARMINGTON     CLEAR     49  36  61 NW9       29.89S
POPLAR BLUFF   CLEAR     48  39  71 W7        29.88S
WEST PLAINS    CLEAR     47  36  65 W5        29.95S

$$



USA.gov is the U.S. government's official web portal to all federal, state and local government web resources and services.